{"data":{"norad_id":48098,"epoch":"2026-09-19T19:18:57.083904Z","epoch_age_seconds":89208,"freshness":"FRESH","line1":"1 48098U 21027G   26262.80482736  .00041454  00000+0  90920-3 0  9997","line2":"2 48098  53.1602 329.0186 0003096  21.9817 338.1322 15.43682782302433","mean_motion":15.43682782,"eccentricity":0.0003096,"inclination_deg":53.1602,"raan_deg":329.0186,"arg_perigee_deg":21.9817,"mean_anomaly_deg":338.1322,"bstar":0.0009092,"rev_number":30243,"period_min":93.283413975398,"perigee_km":433.14178343488,"apogee_km":437.36063341354,"semimajor_km":6813.3882084242,"source":"CELESTRAK","updated_at":"2026-09-20T09:00:38.761885Z"}}